Torna al catalogo

TANSEI 3 DEB

AttivoUNKNOWN
NORAD 13133·DEBRIS·🇯🇵 Japan

Lanciato Feb 19, 1977 da Uchinoura Space Center

Loading…

Prossimi Passaggi (prossime 24 ore)

TLE

AggiornatoSource: Space-Track

Epoca: Sep 11, 2026, 08:12 UTC

1 13133U 77012J   26254.34225633  .00000415  00000-0  12433-2 0  9990
2 13133  65.8427  15.9210 1650436 324.0656  25.9476 10.89526482953986

Traccia TANSEI 3 DEB in tempo reale con AllMySat

Download on the App Store